Regional Weather Roundup
Issued by NWS

Home | Current Version | Previous Version | Graphics & Text | Print | Product List | Glossary On
Versions: 1 2 3 4 5 6 7 8 9 10 11 12 13 14 15 16 17 18 19 20 21 22 23 24 25 26 27 28 29 30 31 32 33 34 35 36 37 38 39 40 41 42 43 44 45 46 47 48 49 50
351
ASUS43 KMPX 061410
RWRMN
WEATHER ROUNDUP FOR MINNESOTA
NATIONAL WEATHER SERVICE TWIN CITIES/CHANHASSEN MN
800 AM CST SAT FEB 06 2016


NOTE: "FAIR" INDICATES FEW OR NO CLOUDS BELOW 12,000 FEET WITH NO
SIGNIFICANT WEATHER AND/OR OBSTRUCTIONS TO VISIBILITY. N/A MEANS
CURRENT SKY AND/OR WEATHER CONDITIONS ARE NOT AVAILABLE.

MNZ060>063-068>070-061500-
   Twin Cities Metro

CITY           SKY/WX    TMP DP  RH WIND       PRES   REMARKS
TWIN CITIES    CLOUDY    26  22  84 S7        30.12S WCI  18
ST PAUL        CLOUDY    26  22  84 S7        30.13F WCI  18
CRYSTAL        CLOUDY    26  23  88 S8        30.10F WCI  18
BLAINE         CLOUDY    28  27  93 S8        30.10  WCI  20
LAKEVILLE      CLOUDY    25  25 100 S8        30.12S WCI  16
EDEN PRAIRIE   CLOUDY    26  22  84 S10       30.10F FOG     WCI  16
SOUTH ST PAUL  CLOUDY    27  23  86 S6        30.12F WCI  20
LAKE ELMO      CLOUDY    27  23  86 S7        30.13S WCI  19
$$
MNZ001>005-007-008-013>017-022>024-027-028-061500-
   Northwest Minnesota

CITY           SKY/WX    TMP DP  RH WIND       PRES   REMARKS
BEMIDJI        CLOUDY    20  19  93 SE6       29.90F WCI  13
HALLOCK        CLOUDY    21  19  93 SE14      29.81F WCI   8
ROSEAU         CLOUDY    19  16  86 SE8       29.86F WCI   9
WARROAD        PTCLDY    18  14  86 SE3       29.87F
THIEF RVR FALL CLOUDY    21  18  86 S8        29.86F WCI  12
CROOKSTON      CLOUDY    25  21  86 S16       29.86F WCI  12
FOSSTON        CLOUDY    21  18  86 S12       29.87F WCI   9
DETROIT LAKES  CLOUDY    23  23 100 S9        29.91F WCI  13
MOORHEAD       CLOUDY    23  19  86 S15       29.90F WCI  10
PARK RAPIDS    CLOUDY    21  18  88 SE8       29.91F WCI  11
MAHNOMEN       FAIR      25  21  84 S12       29.88F WCI  14
$$
MNZ006-009>011-018-025>026-061500-
   North Central Minnesota

CITY           SKY/WX    TMP DP  RH WIND       PRES   REMARKS
BAUDETTE       CLOUDY    19  14  81 SE8       29.88F WCI   9
FLAG ISLAND    CLOUDY    18  16  93 SE3       29.88F
INTL FALLS     CLOUDY    18  15  88 SE5       29.93F FOG     WCI  11
WASKISH        CLOUDY    21  18  86 S7        29.90F WCI  13
LONGVILLE      PTCLDY    19  18  93 SE5       29.96F FOG     WCI  13
GRAND RAPIDS   CLOUDY    19  16  86 S10       29.96F WCI   8
CRANE LAKE     CLOUDY    10   9  92 SE1       29.98F
ORR            CLOUDY    16  12  86 CALM      29.92F
COOK           CLOUDY    16  16 100 S1        29.95F
WALKER         PTSUNNY   21  18  88 SE3       29.92F
$$
MNZ012-019>021-037-061500-
   Northeast Minnesota

CITY           SKY/WX    TMP DP  RH WIND       PRES   REMARKS
DULUTH         CLOUDY    20  16  84 SW9       29.99F WCI   9
ELY            CLOUDY    16  12  86 CALM      29.96F
HIBBING        CLOUDY    16  15  96 VRB3      29.97F
EVELETH        CLOUDY    12  10  92 CALM      29.98F
DULUTH HARBOR  CLOUDY    21  18  86 SW7       30.06F WCI  13
TWO HARBORS    PTCLDY    18  12  79 W6        29.99F WCI   9
SILVER BAY     CLOUDY    18  16  93 CALM      29.99F
GRAND MARAIS     N/A     21  15  78 CALM      30.03S
G MARAIS ARPRT CLOUDY    16  12  86 W6        29.95R WCI   7
$$
MNZ029>031-032-039>041-046>048-054>057-064-061500-
   West Central Minnesota

CITY           SKY/WX    TMP DP  RH WIND       PRES   REMARKS
FERGUS FALLS   CLOUDY    21  19  93 S10       29.97F WCI  10
WHEATON        CLOUDY    28  25  86 S13       29.96F WCI  18
MORRIS         CLOUDY    19  19 100 SE10      29.97F WCI   8
ALEXANDRIA     FLURRIES  23  19  85 S12       29.97F WCI  12
ELBOW LAKE     FAIR      20  19  96 S13       29.96F WCI   8
WADENA         CLOUDY    21  19  93 S7        29.94F WCI  13
GLENWOOD       CLOUDY    21  19  93 S7        29.99F WCI  13
APPLETON       CLOUDY    27  21  80 S6        29.99F WCI  20
BENSON         CLOUDY    21  19  93 S7        30.00F WCI  13
ORTONVILLE     CLOUDY    27  21  80 S7        29.98F WCI  19
MADISON        PTCLDY    28  21  74 SW12      30.00F WCI  18
WILLMAR        FAIR      21  19  93 S8        30.04F WCI  12
$$
MNZ033>034-036-042>043-049>051-058-059-061500-
   Central Minnesota

CITY           SKY/WX    TMP DP  RH WIND       PRES   REMARKS
ST CLOUD       CLOUDY    22  21  96 S9        30.04F FOG     WCI  12
SAUK CENTRE    PTSUNNY   20  19  96 S7        30.00F WCI  11
PAYNESVILLE    CLOUDY    21  20  96 S5        30.03F WCI  14
AITKIN         CLOUDY    23  19  86 S7        29.98F FOG     WCI  15
PINE RIVER     CLOUDY    19  19 100 S6        29.99F FOG     WCI  11
BRAINERD       CLOUDY    22  20  92 S9        29.98F FOG     WCI  12
STAPLES        PTCLDY    21  19  93 S9        29.96F WCI  11
LONG PRAIRIE   CLOUDY    19  19 100 SE7       29.99F WCI  10
LITTLE FALLS   PTCLDY    23  21  93 S7        30.02F FOG     WCI  15
LITCHFIELD     PTCLDY    19  19 100 S3        30.06F
BUFFALO        MOCLDY    23  21  92 S6        30.10F FOG     WCI  15
MAPLE LAKE     CLOUDY    22  22  97 S5        30.08F FOG     WCI  16
$$
MNZ037-044-045-052-053-061500-
   East Central Minnesota

CITY           SKY/WX    TMP DP  RH WIND       PRES   REMARKS
PRINCETON      CLOUDY    25  21  86 S8        30.06F WCI  16
MORA           CLOUDY    25  21  86 S7        30.07F FOG     WCI  17
CAMBRIDGE      PTCLDY    27  19  74 S8        30.06S WCI  18
RUSH CITY      CLOUDY    24  21  89 S6        30.08S WCI  17
MOOSE LAKE     CLOUDY    23  19  86 S6        30.02F FOG     WCI  16
HINCKLEY       CLOUDY    25  23  93 S7        30.07S WCI  17
CLOQUET        CLOUDY    19  18  93 SW9       30.01S WCI   9
MCGREGOR       PTCLDY    21  19  93 S6        30.01F WCI  14
$$
MNZ071>073-080-081-089-090-097-098-061500-
   Southwest Minnesota

CITY           SKY/WX    TMP DP  RH WIND       PRES   REMARKS
MONTEVIDEO     CLOUDY    27  25  93 SW12      30.03F WCI  16
GRANITE FALLS  CLOUDY    27  23  86 S13       30.05F WCI  16
CANBY          PTCLDY    34  27  75 SW17G25   30.02F WCI  23
MARSHALL         N/A     27  22  81 SW16      30.04  WCI  15
REDWOOD FALLS  CLOUDY    22  19  89 S9        30.07F WCI  12
OLIVIA         CLOUDY    21  18  86 S8        30.05F WCI  12
PIPESTONE        N/A     19  14  79 SW5       30.06F WCI  13
WINDOM         CLOUDY    21  21 100 SW7       30.10F FOG     WCI  13
WORTHINGTON    CLOUDY    19  18  93 SW13      30.11S WCI   7
JACKSON        FOG       25  23  93 SW9       30.12F VSB 3/4 WCI  15
TRACY          CLEAR     26  22  84 SW16      30.06F WCI  14
SLAYTON        CLOUDY    19  19 100 SW10      30.07F WCI   8
$$
MNZ065>067-074>077-082>085-091>093-061500-
   South Central Minnesota

CITY           SKY/WX    TMP DP  RH WIND       PRES   REMARKS
MANKATO        CLOUDY    23  19  86 S9        30.13R VSB 3/4 WCI  13
NEW ULM        CLOUDY    18  18 100 S7        30.10F FOG     WCI   8
ST JAMES       CLOUDY    25  25 100 S7        30.13S WCI  17
FAIRMONT       CLOUDY    25  21  86 SW10      30.13R WCI  15
GLENCOE        CLOUDY    20  20  98 S6        30.10S WCI  12
FARIBAULT      LGT SNOW  25  25 100 S10G16    30.14R WCI  15
OWATONNA       CLOUDY    25  23  93 SW13G18   30.13S FOG     WCI  13
WASECA         LGT SNOW  25  23  93 S16       30.15S VSB 3/4 WCI  12
ALBERT LEA     FOG       25  25 100 SW6       30.14F VSB 3/4 WCI  18
$$
MNZ078>079-086>088-094>096-061500-
   Southeast Minnesota

CITY           SKY/WX    TMP DP  RH WIND       PRES   REMARKS
ROCHESTER      CLOUDY    24  22  91 SW15      30.13F FOG     WCI  11
RED WING       CLOUDY    27  21  80 SW7       30.14F WCI  19
STANTON        CLOUDY    27  24  88 S6        30.12F WCI  20
DODGE CENTER   CLOUDY    25  23  93 SW13      30.12F FOG     WCI  13
WINONA         CLOUDY    30  25  80 W6        30.19S WCI  24
AUSTIN         CLOUDY    25  23  93 SW9       30.15F FOG     WCI  15
PRESTON        CLOUDY    25  22  90 W9        30.16S FOG     WCI  15
$$
ABBREVIATIONS USED IN REMARKS
   TC - TEMPERATURES IN CELSIUS
  WCI - WIND CHILL INDEX
   HX - HEAT INDEX
  VSB - VISIBILITY
$$




USA.gov is the U.S. government's official web portal to all federal, state and local government web resources and services.